EW4077 Weather Reports


time (UTC)temp
C
wind
direction
speed
KPH
gust
KPH
rain 1hr
cm
rain 24hr
cm
rain mn
cm
humidity
%
barometer
mb
20260508021518 16 262 17.7 27.4 0.00 0.00 0.00 86 1013.6
20260508020017 16 227 19.3 29.0 0.00 0.00 0.00 85 1013.6
20260508014516 16 234 17.7 30.6 0.00 0.00 0.00 85 1013.5
20260508013015 17 252 16.1 27.4 0.00 0.00 0.00 84 1013.4
20260508011515 17 246 16.1 29.0 0.00 0.00 0.00 84 1013.3
20260508010015 17 241 16.1 30.6 0.00 0.00 0.00 84 1013.4
20260508004513 16 227 22.5 32.2 0.00 0.00 0.00 85 1013.3
20260508003011 16 250 24.1 33.8 0.00 0.00 0.00 85 1013.4
20260508001508 17 238 24.1 30.6 0.00 0.00 0.00 84 1013.5
20260508000008 17 227 22.5 33.8 0.00 0.00 0.00 84 1013.5
20260507234511 17 247 20.9 32.2 0.00 0.00 0.00 84 1013.5
20260507233008 17 240 17.7 33.8 0.00 0.00 0.00 84 1013.5
20260507231503 17 246 24.1 33.8 0.00 0.00 0.00 83 1013.6
20260507230007 17 227 19.3 32.2 0.00 0.00 0.00 83 1013.7
20260507224600 16 232 27.4 35.4 0.00 0.00 0.00 84 1013.8
20260507223105 16 226 27.4 35.4 0.00 0.00 0.00 84 1013.9
20260507221552 16 254 27.4 37.0 0.00 0.00 0.00 83 1014.1
20260507220049 17 228 19.3 33.8 0.00 0.00 0.00 83 1014.3
20260507214548 17 247 25.7 35.4 0.00 0.00 0.00 83 1014.4
20260507213044 17 236 16.1 32.2 0.00 0.00 0.00 83 1014.6
20260507211549 16 221 24.1 33.8 0.00 0.00 0.00 84 1014.7
20260507210059 17 232 22.5 30.6 0.00 0.00 0.00 82 1015.0
20260507204544 17 225 16.1 29.0 0.00 0.00 0.00 81 1015.1
20260507203038 17 213 14.5 25.7 0.00 0.00 0.00 81 1015.2
20260507201533 17 225 9.7 16.1 0.00 0.00 0.00 80 1015.3
20260507200031 18 224 8.0 16.1 0.00 0.00 0.00 78 1015.6
20260507194545 18 187 8.0 16.1 0.00 0.00 0.00 78 1015.8
20260507193029 18 155 8.0 14.5 0.00 0.00 0.00 78 1015.9
20260507191527 17 140 9.7 16.1 0.00 0.00 0.00 78 1016.0
20260507190039 17 170 11.3 14.5 0.00 0.00 0.00 78 1016.2
20260507184532 17 148 6.4 14.5 0.00 0.00 0.00 79 1016.3
20260507183024 17 184 9.7 12.9 0.00 0.00 0.00 78 1016.4
20260507181524 17 174 8.0 14.5 0.00 0.00 0.00 79 1016.4
20260507180022 17 170 9.7 14.5 0.00 0.00 0.00 79 1016.4
20260507174521 17 164 9.7 14.5 0.00 0.00 0.00 80 1016.4
20260507173036 17 184 9.7 14.5 0.00 0.00 0.00 80 1016.5
20260507171519 17 167 4.8 16.1 0.00 0.00 0.00 80 1016.4
20260507170021 17 163 6.4 16.1 0.00 0.00 0.00 79 1016.5
20260507164523 17 202 4.8 9.7 0.00 0.00 0.00 79 1016.5
20260507163018 18 171 4.8 11.3 0.00 0.00 0.00 79 1016.5
20260507161516 17 213 4.8 8.0 0.00 0.00 0.00 80 1016.5
20260507160014 17 166 4.8 9.7 0.00 0.00 0.00 78 1016.6
20260507154514 18 162 1.6 6.4 0.00 0.00 0.00 77 1016.5
20260507153011 17 150 1.6 4.8 0.00 0.00 0.00 78 1016.6
20260507151510 17 127 3.2 4.8 0.00 0.00 0.00 77 1016.7
20260507150007 17 76 0.0 3.2 0.00 0.00 0.00 79 1016.6
20260507144505 17 340 0.0 1.6 0.00 0.00 0.00 81 1016.5
20260507143016 16 286 1.6 1.6 0.00 0.00 0.00 79 1016.4
20260507141604 16 302 0.0 1.6 0.00 0.00 0.00 83 1016.3
20260507140058 15 302 0.0 3.2 0.00 0.00 0.00 85 1016.3
20260507134558 15 280 1.6 4.8 0.00 0.00 0.00 88 1016.1
20260507133058 15 274 1.6 9.7 0.00 0.00 0.00 89 1015.9
20260507131602 15 250 4.8 8.0 0.00 0.00 0.00 90 1015.9
20260507130057 15 238 3.2 8.0 0.00 0.00 0.00 91 1015.8
20260507124603 15 265 1.6 4.8 0.00 0.00 0.00 91 1015.7
20260507123055 15 261 1.6 4.8 0.00 0.00 0.00 91 1015.7
20260507121555 14 280 0.0 1.6 0.00 0.00 0.00 90 1015.7
20260507120053 15 269 0.0 1.6 0.00 0.00 0.00 90 1015.7
20260507114606 15 296 1.6 3.2 0.00 0.00 0.00 90 1015.7
20260507113119 15 250 1.6 4.8 0.00 0.00 0.00 90 1015.7
20260507111550 15 257 1.6 4.8 0.00 0.00 0.00 90 1015.8
20260507110048 15 234 3.2 4.8 0.00 0.00 0.00 89 1015.9
20260507104546 15 257 1.6 4.8 0.00 0.00 0.00 89 1016.1
20260507103050 15 252 1.6 4.8 0.00 0.00 0.00 88 1016.1
20260507101546 15 242 0.0 1.6 0.00 0.00 0.00 88 1016.2
20260507100040 15 267 0.0 1.6 0.00 0.00 0.00 87 1016.1
20260507094541 15 246 0.0 3.2 0.00 0.00 0.00 86 1016.2
20260507093037 15 279 0.0 0.0 0.00 0.00 0.00 85 1016.4
20260507091540 15 267 0.0 0.0 0.00 0.00 0.00 84 1016.5
20260507090033 15 292 0.0 1.6 0.00 0.00 0.00 85 1016.7
20260507084541 15 292 1.6 3.2 0.00 0.00 0.00 85 1016.8
20260507083031 15 262 0.0 1.6 0.00 0.00 0.00 86 1016.9
20260507081536 15 269 0.0 1.6 0.00 0.00 0.00 86 1016.9
20260507080029 15 211 0.0 3.2 0.00 0.00 0.00 85 1017.0
20260507074530 15 156 1.6 4.8 0.00 0.00 0.00 85 1017.0
20260507073027 16 175 0.0 8.0 0.00 0.00 0.00 82 1017.1
20260507071525 15 246 3.2 8.0 0.00 0.00 0.00 84 1017.2
20260507070021 15 252 0.0 1.6 0.00 0.00 0.00 87 1017.2
20260507064520 15 148 0.0 3.2 0.00 0.00 0.00 86 1017.2
20260507063024 15 149 0.0 3.2 0.00 0.00 0.00 86 1017.2
20260507061519 16 176 0.0 6.4 0.00 0.00 0.00 86 1017.3
20260507060018 16 257 3.2 6.4 0.00 0.00 0.00 83 1017.3
20260507054517 16 226 0.0 8.0 0.00 0.00 0.00 83 1017.3
20260507053017 16 263 3.2 6.4 0.00 0.00 0.00 79 1017.3
20260507051516 16 281 3.2 8.0 0.00 0.00 0.00 84 1017.3
20260507050024 16 214 3.2 12.9 0.00 0.00 0.00 86 1017.2
20260507044515 16 246 6.4 12.9 0.00 0.00 0.00 85 1017.2
20260507043022 16 258 8.0 12.9 0.00 0.00 0.00 84 1017.2
20260507041513 16 240 6.4 17.7 0.00 0.00 0.00 85 1017.1
20260507040013 16 254 9.7 17.7 0.00 0.00 0.00 85 1016.9
20260507034520 16 261 8.0 16.1 0.00 0.00 0.00 85 1016.7
20260507033015 16 244 6.4 14.5 0.00 0.00 0.00 83 1016.5
20260507031510 16 221 9.7 16.1 0.00 0.00 0.00 82 1016.3
20260507030010 16 254 11.3 19.3 0.00 0.00 0.00 82 1016.2
20260507024514 17 214 8.0 16.1 0.00 0.00 0.00 77 1016.2
20260507023009 17 264 11.3 22.5 0.00 0.00 0.00 73 1015.9